Weather Roundup
Issued by NWS Chicago, IL

Home | Current Version | Previous Version | Graphics & Text | Print | Product List | Glossary On
Versions: 1 2 3 4 5 6 7 8 9 10 11 12 13 14 15 16 17 18 19 20 21 22 23 24 25 26 27 28 29 30 31 32 33 34 35 36 37 38 39 40 41 42 43 44 45 46 47 48 49 50
000
NZUS59 KLOT 231003
HRRLOT

CHICAGO AREA WEATHER ROUNDUP
NATIONAL WEATHER SERVICE CHICAGO/ROMEOVILLE IL
400 AM CST TUE JAN 23 2018

NOTE: "FAIR" INDICATES FEW OR NO CLOUDS BELOW 12,000 FEET WITH NO
SIGNIFICANT WEATHER AND/OR OBSTRUCTIONS TO VISIBILITY.

* THESE STATIONS ARE NOT UNDER NWS QUALITY CONTROL. THEY ALSO MAY NOT
  REPORT WEATHER SUCH AS PRECIPITATION OR FOG.

ILZ005-006-012>014-019>023-231100-
NORTHEAST ILLINOIS

CITY           SKY/WX    TMP DP  RH WIND       PRES   REMARKS
OHARE          LGT RAIN  35  32  88 W10       29.53R WCI  27
MIDWAY         LGT SNOW  36  33  89 W12       29.54R FOG
AURORA         LGT SNOW  34  32  92 NW10      29.56R FOG     WCI  26
LANSING*       CLOUDY    36  34  93 W8        29.56R
JOLIET*        RAIN      36  35  95 SW6       29.57R
WAUKEGAN       LGT SNOW  32  31  96 NW9       29.52R VSB 3/4 WCI  24
DUPAGE AIRPORT LGT SNOW  33  32  96 NW14      29.54R FOG     WCI  23
WHEELING       LGT SNOW  34  33  96 NW9       29.55R FOG     WCI  27
KANKAKEE*      CLOUDY   N/A N/A N/A W13       29.59R
MORRIS*        RAIN      34  32  92 W9        29.57R WCI  27
NORTHERLY ISL    N/A     35  31  85 SW7         N/A  WCI  29
$$

WIZ051-052-058>065-066-070>072-231100-
SOUTHEAST WISCONSIN

CITY           SKY/WX    TMP DP  RH WIND       PRES   REMARKS
MILWAUKEE      LGT SNOW  31  30  96 NW9       29.53R VSB 3/4 WCI  23
KENOSHA*       SNOW      32  30  92 NW8       29.53R VSB 1/2 WCI  25
RACINE*        LGT SNOW  31  30  96 N13       29.54R VSB 1   WCI  21
BURLINGTON     LGT SNOW  30  28  93 NW6       29.55R WCI  24
$$

INZ001>003-010>013-019-020-231100-
NORTHWEST INDIANA

CITY           SKY/WX    TMP DP  RH WIND       PRES   REMARKS
GARY*          CLOUDY    39  33  80 SW7       29.56R
MICHIGAN CITY* NOT AVBL
RENSSELAER*    NOT AVBL
VALPARAISO     CLOUDY    38  33  82 MISG      29.56R
$$

LMZ740>746-231100-
SOUTHERN LAKE MICHIGAN

STATION/POSITION TIME  SKY/WX   TEMP WIND        PRES    VSBY
                                AIR  DIR/SP/G
                 (UTC)          (F)  (DEG/KT/KT) (MB)    (MI)
HARRISON CRIB    0940            36  260/ 16/ 18   N/A
BURNHAM HARBOR   1000            35  290/  9/ 11   N/A
CALUMET HARBOR   0930            37  220/  6/ 10 1000.0R
BURNS HARBOR     0940            38  240/ 14/ 17 1001.4R
MICHIGAN CITY    0940            36  230/ 17/ 18   N/A
$$

ABBREVIATIONS USED IN REMARKS
   TC - TEMPERATURE IN CELSIUS
  WCI - WIND CHILL INDEX
   HX - HEAT INDEX
  VSB - VISIBILITY
$$




USA.gov is the U.S. government's official web portal to all federal, state and local government web resources and services.